FENGYUN 4A

Last updated on Wed Sep 23 2026 00:03:10 GMT+0000 (Coordinated Universal Time)

1 41882U 16077A 26265.90474866 -.00000359 00000+0 00000+0 0 9995 2 41882 2.5625 79.0348 0008139 166.2486 205.3018 1.00270840 35919
UTC large
Height (km)
Speed (km/s)
/
Latitude / Longitude
Inclination (degrees)
Orbital Period (minutes)
Azimuth
Elevation
Range (km)
Doppler Factor

Next 0 passes for location: London (51.5072 / 0.1276)

No passes found over London.
FENGYUN 4A